Hourly Data Report for October 04, 2017

All times are specified in Local Standard Time (LST). Add 1 hour to adjust for Daylight Saving Time where and when it is observed.

THE PAS A
MANITOBA

53°58'17.000" N
101°05'28.000" W
270.60 m
5052881
71867
YQD

Download Data

Hourly Data (October 2017)
Hourly Data Report for October 4, 2017
Temp Definition
°C
Dew Point Temp Definition
°C
Rel Hum Definition
%
Wind Dir Definition
10's deg

Wind Spd Definition
km/h
Visibility Definition
km
Stn Press Definition
kPa
Hmdx Definition


Wind Chill Definition


Weather Definition


TIME
00:00 Legend Double Dagger 3.9 1.0 81 20 10 24.1 98.56     Mostly Cloudy
01:00 Legend Double Dagger 3.6 0.8 82 20 17 24.1 98.43     LegendNANA
02:00 Legend Double Dagger 3.4 0.5 81 20 16 24.1 98.35     LegendNANA
03:00 Legend Double Dagger 3.9 0.4 78 23 18 24.1 98.28     Cloudy
04:00 Legend Double Dagger 3.4 0.5 81 23 15 24.1 98.23     LegendNANA
05:00 Legend Double Dagger 5.1 0.5 72 26 25 24.1 98.20     LegendNANA
06:00 Legend Double Dagger 5.1 -0.1 69 27 31 24.1 98.20     Clear
07:00 Legend Double Dagger 4.7 -0.2 71 27 28 24.1 98.19     LegendNANA
08:00 Legend Double Dagger 5.4 -0.1 67 26 30 24.1 98.22     LegendNANA
09:00 Legend Double Dagger 5.8 -0.1 66 28 27 24.1 98.30     Mostly Cloudy
10:00 Legend Double Dagger 8.2 1.0 61 28 26 24.1 98.29     LegendNANA
11:00 Legend Double Dagger 9.2 1.5 58 31 27 24.1 98.35     LegendNANA
12:00 Legend Double Dagger 9.6 1.9 59 31 23 24.1 98.39     Mostly Cloudy
13:00 Legend Double Dagger 9.4 1.5 58 30 24 24.1 98.46     LegendNANA
14:00 Legend Double Dagger 9.3 1.6 58 31 25 24.1 98.50     LegendNANA
15:00 Legend Double Dagger 9.3 1.5 58 32 27 24.1 98.54     Drizzle
16:00 Legend Double Dagger 9.5 1.1 56 30 23 24.1 98.57     LegendNANA
17:00 Legend Double Dagger 9.0 0.4 55 30 23 24.1 98.58     LegendNANA
18:00 Legend Double Dagger 8.2 -1.0 52 32 21 24.1 98.62     Mostly Cloudy
19:00
20:00 Legend Double Dagger 7.5 -1.0 55 32 19 24.1 98.70     LegendNANA
21:00 Legend Double Dagger 7.2 -0.3 59 32 17 24.1 98.69     Clear
22:00 Legend Double Dagger 3.8 -0.6 73 29 8 24.1 98.71     LegendNANA
23:00 Legend Double Dagger 3.3 -0.9 74 27 8 24.1 98.73     LegendNANA

Notes on Data Quality.

Legend

  • E = Estimated
  • M = Missing
  • NA = Not Available
  • ‡ = Partner data that is not subject to review by the National Climate Archives
Date modified: